Location: Unspecified
(50.7693°N, 0.0000°E)
Time: 14:31:28
(UTC+00:00)

SR - Pass Details

Date: 25 June 2019
Orbit: 581 x 875 km, 66.7° (Epoch: 16 July)

Event Time Altitude Azimuth Distance (km) Brightness Sun altitude
Rises 09:14:40 0° 324° (NW) 2,935 ? 47.6°
Reaches altitude 10° 09:17:24 10° 341° (NNW) 2,070 ? 48.0°
Maximum altitude 09:20:58 21° 30° (NNE) 1,524 ? 48.5°
Drops below altitude 10° 09:24:44 10° 80° (E) 2,205 ? 49.1°
Sets 09:27:44 0° 96° (E) 3,186 ? 49.5°
